Location: Liscomb Game Sanctuary
(45.1633°N, 62.5575°W)
Time: 00:24:50
(UTC-03:00)

Cosmos 1939 Rocket - Pass Details

Date: 22 February 2018
Orbit: 532 x 586 km, 97.5° (Epoch: 21 June)

Event Time Altitude Azimuth Distance (km) Brightness Sun altitude
Exits shadow 19:24:27 35° 69° (ENE) 952 3.5 -17.7°
Drops below altitude 10° 19:28:12 10° 5° (N) 1,907 5.6 -18.4°
Sets 19:30:28 0° 356° (N) 2,804 6.5 -18.8°
